Find Starlink 5310

NORAD ID: 55272 Int'l Des: 2023-010 Owner: SPXS Country: US Constellation: starlink operational
LEOCIRCULAR

リアルタイム位置

3D地球を読み込み中...

Starlink 5310について

説明を読み込み中...

次回通過

Passes for default location (London). Set your location on the main map for personalized predictions.

高度履歴

Loading altitude history...

軌道要素

1 55272U 23010D 26127.09057451 -.00000816 00000-0 -60653-4 0 9997
2 55272 69.9991 257.2124 0003128 267.8561 92.2240 14.98319436181533
Epoch: May 7, 2026 • Age: 11 hours

現在のステータス

高度 584.3 km
速度 7.57 km/s
衛星直下点 -37.59°S, 35.4°E
打ち上げ日 Jan 19, 2023
運用期間 3.2 years
タイプ internet

技術仕様

分類 Payload
質量 305.00 kg
乾燥質量 290.00 kg
総質量 305.00 kg
長さ 0.20 m
直径 2.80 m
スパン 9.00 m
形状 Box + pan
製造者 SPXS
バスタイプ Starlink
フェーズステータス In Orbit
所有者/国 SPXS/US

Most Searched